Time,TemperatureF,DewpointF,PressureIn,WindDirection,WindDirectionDegrees,WindSpeedMPH,WindSpeedGustMPH,Humidity,HourlyPrecipIn,Conditions,Clouds,dailyrainin,SoftwareType,DateUTC
2013-05-01 00:01:00,54.5,36.3,30.30,South,181,0.0,1.0,50,0.00,,CLR,0.00,VWS V14.01,2013-05-01 04:01:00,
2013-05-01 00:06:00,54.1,35.4,30.29,SE,130,1.0,7.0,49,0.00,,CLR,0.00,VWS V14.01,2013-05-01 04:06:00,
2013-05-01 00:11:00,53.9,34.7,30.30,SSE,154,1.0,7.0,48,0.00,,CLR,0.00,VWS V14.01,2013-05-01 04:11:00,
2013-05-01 00:16:00,53.6,34.9,30.30,SSE,154,0.0,7.0,49,0.00,,CLR,0.00,VWS V14.01,2013-05-01 04:16:00,
2013-05-01 00:21:00,53.4,35.7,30.30,SSE,154,0.0,7.0,51,0.00,,CLR,0.00,VWS V14.01,2013-05-01 04:21:00,
2013-05-01 00:26:00,53.0,37.3,30.30,SSE,154,0.0,7.0,55,0.00,,CLR,0.00,VWS V14.01,2013-05-01 04:26:00,
2013-05-01 00:31:00,52.4,38.1,30.30,SSE,154,0.0,1.0,58,0.00,,CLR,0.00,VWS V14.01,2013-05-01 04:31:00,
2013-05-01 00:36:00,51.8,38.4,30.30,SSE,154,1.0,3.0,60,0.00,,CLR,0.00,VWS V14.01,2013-05-01 04:36:00,
2013-05-01 00:41:00,51.2,37.8,30.30,SSE,154,2.0,3.0,60,0.00,,CLR,0.00,VWS V14.01,2013-05-01 04:41:00,
2013-05-01 00:46:00,50.6,37.7,30.30,SSE,154,0.0,3.0,61,0.00,,CLR,0.00,VWS V14.01,2013-05-01 04:46:00,
2013-05-01 00:51:00,50.1,37.2,30.30,SSE,154,1.0,3.0,61,0.00,,CLR,0.00,VWS V14.01,2013-05-01 04:51:00,
2013-05-01 00:56:00,49.6,36.3,30.30,SSE,154,0.0,3.0,60,0.00,,CLR,0.00,VWS V14.01,2013-05-01 04:56:00,
2013-05-01 01:01:00,49.3,36.0,30.31,SSE,154,0.0,0.0,60,0.00,,CLR,0.00,VWS V14.01,2013-05-01 05:01:00,
2013-05-01 01:06:00,48.9,36.5,30.30,SSE,154,0.0,0.0,62,0.00,,CLR,0.00,VWS V14.01,2013-05-01 05:06:00,
2013-05-01 01:11:00,48.5,36.5,30.30,SSE,154,0.0,0.0,63,0.00,,CLR,0.00,VWS V14.01,2013-05-01 05:11:00,
2013-05-01 01:16:00,48.1,36.9,30.31,SSE,154,0.0,0.0,65,0.00,,CLR,0.00,VWS V14.01,2013-05-01 05:16:00,
2013-05-01 01:21:00,47.7,37.3,30.30,SSE,154,0.0,0.0,67,0.00,,CLR,0.00,VWS V14.01,2013-05-01 05:21:00,
2013-05-01 01:26:00,47.4,37.0,30.31,SSE,154,0.0,2.0,67,0.00,,CLR,0.00,VWS V14.01,2013-05-01 05:26:00,
2013-05-01 01:31:00,47.0,36.2,30.31,SSE,154,0.0,0.0,66,0.00,,CLR,0.00,VWS V14.01,2013-05-01 05:31:00,
2013-05-01 01:36:00,46.6,36.2,30.31,SSE,154,2.0,2.0,67,0.00,,CLR,0.00,VWS V14.01,2013-05-01 05:36:00,
2013-05-01 01:41:00,46.4,36.8,30.31,SSE,154,0.0,2.0,69,0.00,,CLR,0.00,VWS V14.01,2013-05-01 05:41:00,
2013-05-01 01:46:00,46.0,36.0,30.31,SSE,154,0.0,2.0,68,0.00,,CLR,0.00,VWS V14.01,2013-05-01 05:46:00,
2013-05-01 01:51:00,45.7,36.1,30.31,SSE,154,0.0,2.0,69,0.00,,CLR,0.00,VWS V14.01,2013-05-01 05:51:00,
2013-05-01 01:56:00,45.4,36.6,30.31,SSE,154,0.0,2.0,71,0.00,,CLR,0.00,VWS V14.01,2013-05-01 05:56:00,
2013-05-01 02:01:00,45.0,36.5,30.31,SSE,154,0.0,0.0,72,0.00,,CLR,0.00,VWS V14.01,2013-05-01 06:01:00,
2013-05-01 02:06:00,44.6,36.2,30.32,SSE,154,0.0,0.0,72,0.00,,CLR,0.00,VWS V14.01,2013-05-01 06:06:00,
2013-05-01 02:11:00,44.3,35.9,30.31,SSE,154,0.0,0.0,72,0.00,,CLR,0.00,VWS V14.01,2013-05-01 06:11:00,
2013-05-01 02:16:00,44.1,35.7,30.31,SSE,154,1.0,1.0,72,0.00,,CLR,0.00,VWS V14.01,2013-05-01 06:16:00,
2013-05-01 02:21:00,43.9,35.5,30.31,SSE,154,0.0,2.0,72,0.00,,CLR,0.00,VWS V14.01,2013-05-01 06:21:00,
2013-05-01 02:26:00,43.7,36.0,30.31,SSE,154,0.0,2.0,74,0.00,,CLR,0.00,VWS V14.01,2013-05-01 06:26:00,
2013-05-01 02:31:00,43.5,36.1,30.31,SSE,154,0.0,0.0,75,0.00,,CLR,0.00,VWS V14.01,2013-05-01 06:31:00,
2013-05-01 02:36:00,43.4,36.0,30.31,SSE,154,0.0,0.0,75,0.00,,CLR,0.00,VWS V14.01,2013-05-01 06:36:00,
2013-05-01 02:41:00,43.2,35.8,30.31,SSE,154,0.0,0.0,75,0.00,,CLR,0.00,VWS V14.01,2013-05-01 06:41:00,
2013-05-01 02:46:00,43.0,35.6,30.31,SSE,154,0.0,0.0,75,0.00,,CLR,0.00,VWS V14.01,2013-05-01 06:46:00,
2013-05-01 02:51:00,42.8,35.1,30.31,SSE,154,0.0,0.0,74,0.00,,CLR,0.00,VWS V14.01,2013-05-01 06:51:00,
2013-05-01 02:56:00,42.7,35.0,30.31,SSE,154,0.0,1.0,74,0.00,,CLR,0.00,VWS V14.01,2013-05-01 06:56:00,
2013-05-01 03:01:00,42.5,35.2,30.31,SSE,153,0.0,0.0,75,0.00,,CLR,0.00,VWS V14.01,2013-05-01 07:01:00,
2013-05-01 03:06:00,42.3,35.0,30.31,SSE,147,0.0,0.0,75,0.00,,CLR,0.00,VWS V14.01,2013-05-01 07:06:00,
2013-05-01 03:11:00,42.0,34.7,30.31,SSE,151,0.0,0.0,75,0.00,,CLR,0.00,VWS V14.01,2013-05-01 07:11:00,
2013-05-01 03:16:00,41.8,34.8,30.31,SSE,151,0.0,0.0,76,0.00,,CLR,0.00,VWS V14.01,2013-05-01 07:16:00,
2013-05-01 03:21:00,41.7,34.7,30.31,SSE,151,0.0,0.0,76,0.00,,CLR,0.00,VWS V14.01,2013-05-01 07:21:00,
2013-05-01 03:26:00,41.6,34.6,30.31,SSE,151,0.0,0.0,76,0.00,,CLR,0.00,VWS V14.01,2013-05-01 07:26:00,
2013-05-01 03:31:00,41.5,34.8,30.31,SSE,152,0.0,0.0,77,0.00,,CLR,0.00,VWS V14.01,2013-05-01 07:31:00,
2013-05-01 03:36:00,41.5,35.5,30.31,SSE,153,0.0,0.0,79,0.00,,CLR,0.00,VWS V14.01,2013-05-01 07:36:00,
2013-05-01 03:41:00,41.5,35.5,30.31,SSE,153,0.0,0.0,79,0.00,,CLR,0.00,VWS V14.01,2013-05-01 07:41:00,
2013-05-01 03:46:00,41.4,35.4,30.32,SSE,153,0.0,0.0,79,0.00,,CLR,0.00,VWS V14.01,2013-05-01 07:46:00,
2013-05-01 03:51:00,41.3,35.3,30.32,SSE,153,0.0,0.0,79,0.00,,CLR,0.00,VWS V14.01,2013-05-01 07:51:00,
2013-05-01 03:56:00,41.3,35.6,30.32,SSE,153,0.0,0.0,80,0.00,,CLR,0.00,VWS V14.01,2013-05-01 07:56:00,
2013-05-01 04:01:00,41.2,35.8,30.32,SSE,152,0.0,0.0,81,0.00,,CLR,0.00,VWS V14.01,2013-05-01 08:01:00,
2013-05-01 04:06:00,41.1,36.0,30.32,SSE,150,0.0,0.0,82,0.00,,CLR,0.00,VWS V14.01,2013-05-01 08:06:00,
2013-05-01 04:11:00,40.9,35.8,30.32,SSE,148,0.0,0.0,82,0.00,,CLR,0.00,VWS V14.01,2013-05-01 08:11:00,
2013-05-01 04:16:00,40.7,35.6,30.33,SSE,147,0.0,0.0,82,0.00,,CLR,0.00,VWS V14.01,2013-05-01 08:16:00,
2013-05-01 04:21:00,40.5,36.0,30.33,SE,146,0.0,0.0,84,0.00,,CLR,0.00,VWS V14.01,2013-05-01 08:21:00,
2013-05-01 04:26:00,40.3,35.6,30.33,SE,142,0.0,0.0,83,0.00,,CLR,0.00,VWS V14.01,2013-05-01 08:26:00,
2013-05-01 04:31:00,40.1,35.4,30.33,SE,138,0.0,0.0,83,0.00,,CLR,0.00,VWS V14.01,2013-05-01 08:31:00,
2013-05-01 04:36:00,39.9,35.2,30.33,SE,140,0.0,0.0,83,0.00,,CLR,0.00,VWS V14.01,2013-05-01 08:36:00,
2013-05-01 04:41:00,39.8,35.4,30.33,SE,139,0.0,0.0,84,0.00,,CLR,0.00,VWS V14.01,2013-05-01 08:41:00,
2013-05-01 04:46:00,39.7,35.3,30.33,SE,138,0.0,0.0,84,0.00,,CLR,0.00,VWS V14.01,2013-05-01 08:46:00,
2013-05-01 04:51:00,39.5,34.8,30.33,SE,138,0.0,0.0,83,0.00,,CLR,0.00,VWS V14.01,2013-05-01 08:51:00,
2013-05-01 04:56:00,39.3,34.6,30.34,SE,138,0.0,0.0,83,0.00,,CLR,0.00,VWS V14.01,2013-05-01 08:56:00,
2013-05-01 05:01:00,39.0,34.3,30.34,SE,137,0.0,0.0,83,0.00,,CLR,0.00,VWS V14.01,2013-05-01 09:01:00,
2013-05-01 05:06:00,38.9,34.5,30.34,SE,138,0.0,0.0,84,0.00,,CLR,0.00,VWS V14.01,2013-05-01 09:06:00,
2013-05-01 05:11:00,38.7,34.3,30.34,SE,136,0.0,0.0,84,0.00,,CLR,0.00,VWS V14.01,2013-05-01 09:11:00,
2013-05-01 05:16:00,38.5,34.1,30.34,SE,136,0.0,0.0,84,0.00,,CLR,0.00,VWS V14.01,2013-05-01 09:16:00,
2013-05-01 05:21:00,38.3,33.9,30.34,SE,140,0.0,0.0,84,0.00,,CLR,0.00,VWS V14.01,2013-05-01 09:21:00,
2013-05-01 05:26:00,38.1,34.0,30.34,SE,143,0.0,0.0,85,0.00,,CLR,0.00,VWS V14.01,2013-05-01 09:26:00,
2013-05-01 05:31:00,38.0,33.9,30.34,SE,142,0.0,0.0,85,0.00,,CLR,0.00,VWS V14.01,2013-05-01 09:31:00,
2013-05-01 05:36:00,37.9,34.1,30.34,SE,141,0.0,0.0,86,0.00,,CLR,0.00,VWS V14.01,2013-05-01 09:36:00,
2013-05-01 05:41:00,37.7,33.9,30.34,SE,125,0.0,0.0,86,0.00,,CLR,0.00,VWS V14.01,2013-05-01 09:41:00,
2013-05-01 05:46:00,37.5,33.7,30.34,SE,134,0.0,0.0,86,0.00,,CLR,0.00,VWS V14.01,2013-05-01 09:46:00,
2013-05-01 05:51:00,37.3,33.5,30.34,SE,128,0.0,0.0,86,0.00,,CLR,0.00,VWS V14.01,2013-05-01 09:51:00,
2013-05-01 05:56:00,37.3,33.5,30.34,SE,127,0.0,1.0,86,0.00,,CLR,0.00,VWS V14.01,2013-05-01 09:56:00,
2013-05-01 06:01:00,37.3,33.8,30.34,SE,132,0.0,0.0,87,0.00,,CLR,0.00,VWS V14.01,2013-05-01 10:01:00,
2013-05-01 06:06:00,37.3,33.8,30.34,SE,131,0.0,0.0,87,0.00,,CLR,0.00,VWS V14.01,2013-05-01 10:06:00,
2013-05-01 06:11:00,37.2,33.7,30.34,SE,131,0.0,0.0,87,0.00,,CLR,0.00,VWS V14.01,2013-05-01 10:11:00,
2013-05-01 06:16:00,37.2,33.7,30.35,SE,135,0.0,0.0,87,0.00,,CLR,0.00,VWS V14.01,2013-05-01 10:16:00,
2013-05-01 06:21:00,37.2,33.7,30.35,SE,125,0.0,0.0,87,0.00,,CLR,0.00,VWS V14.01,2013-05-01 10:21:00,
2013-05-01 06:26:00,37.3,34.1,30.36,ESE,121,0.0,0.0,88,0.00,,CLR,0.00,VWS V14.01,2013-05-01 10:26:00,
2013-05-01 06:31:00,37.3,33.8,30.36,ESE,123,0.0,0.0,87,0.00,,CLR,0.00,VWS V14.01,2013-05-01 10:31:00,
2013-05-01 06:36:00,37.4,34.2,30.36,SE,129,0.0,0.0,88,0.00,,CLR,0.00,VWS V14.01,2013-05-01 10:36:00,
2013-05-01 06:41:00,37.5,34.6,30.36,SE,131,0.0,0.0,89,0.00,,CLR,0.00,VWS V14.01,2013-05-01 10:41:00,
2013-05-01 06:46:00,37.7,34.8,30.37,SE,135,0.0,0.0,89,0.00,,CLR,0.00,VWS V14.01,2013-05-01 10:46:00,
2013-05-01 06:51:00,38.1,35.2,30.37,SE,140,0.0,0.0,89,0.00,,CLR,0.00,VWS V14.01,2013-05-01 10:51:00,
2013-05-01 06:56:00,38.4,35.5,30.37,SE,142,0.0,0.0,89,0.00,,CLR,0.00,VWS V14.01,2013-05-01 10:56:00,
2013-05-01 07:01:00,38.6,35.6,30.37,SE,140,0.0,0.0,89,0.00,,CLR,0.00,VWS V14.01,2013-05-01 11:01:00,
2013-05-01 07:06:00,38.9,35.9,30.38,SE,127,0.0,0.0,89,0.00,,CLR,0.00,VWS V14.01,2013-05-01 11:06:00,
2013-05-01 07:11:00,39.2,36.2,30.38,SE,135,0.0,0.0,89,0.00,,CLR,0.00,VWS V14.01,2013-05-01 11:11:00,
2013-05-01 07:16:00,39.7,36.4,30.38,SSE,154,0.0,0.0,88,0.00,,CLR,0.00,VWS V14.01,2013-05-01 11:16:00,
2013-05-01 07:21:00,40.3,36.5,30.39,SSE,154,0.0,0.0,86,0.00,,CLR,0.00,VWS V14.01,2013-05-01 11:21:00,
2013-05-01 07:26:00,40.7,36.8,30.39,SSE,154,0.0,0.0,86,0.00,,CLR,0.00,VWS V14.01,2013-05-01 11:26:00,
2013-05-01 07:31:00,41.1,36.9,30.39,SSE,154,0.0,0.0,85,0.00,,CLR,0.00,VWS V14.01,2013-05-01 11:31:00,
2013-05-01 07:36:00,41.6,37.4,30.39,SSE,153,0.0,0.0,85,0.00,,CLR,0.00,VWS V14.01,2013-05-01 11:36:00,
2013-05-01 07:41:00,42.5,38.0,30.39,SSE,154,0.0,0.0,84,0.00,,CLR,0.00,VWS V14.01,2013-05-01 11:41:00,
2013-05-01 07:46:00,43.5,38.4,30.39,SSE,154,0.0,0.0,82,0.00,,CLR,0.00,VWS V14.01,2013-05-01 11:46:00,
2013-05-01 07:51:00,44.7,38.9,30.39,SSE,154,0.0,0.0,80,0.00,,CLR,0.00,VWS V14.01,2013-05-01 11:51:00,
2013-05-01 07:56:00,46.0,39.2,30.39,SSE,154,0.0,0.0,77,0.00,,CLR,0.00,VWS V14.01,2013-05-01 11:56:00,
2013-05-01 08:01:00,47.3,39.8,30.39,SSE,151,0.0,0.0,75,0.00,,CLR,0.00,VWS V14.01,2013-05-01 12:01:00,
2013-05-01 08:06:00,48.7,40.5,30.40,SSE,152,0.0,0.0,73,0.00,,CLR,0.06,VWS V14.01,2013-05-01 12:06:00,
2013-05-01 08:11:00,49.8,40.8,30.40,SSE,152,0.0,0.0,71,0.00,,CLR,0.00,VWS V14.01,2013-05-01 12:11:00,
2013-05-01 08:16:00,50.8,41.0,30.40,SSE,154,0.0,0.0,69,0.00,,CLR,0.00,VWS V14.01,2013-05-01 12:16:00,
2013-05-01 08:21:00,51.6,41.0,30.40,SSE,154,0.0,0.0,67,0.00,,CLR,0.00,VWS V14.01,2013-05-01 12:21:00,
2013-05-01 08:26:00,52.5,40.7,30.40,SSE,154,0.0,0.0,64,0.00,,CLR,0.00,VWS V14.01,2013-05-01 12:26:00,
2013-05-01 08:31:00,53.5,39.5,30.40,SSE,154,0.0,0.0,59,0.00,,CLR,0.00,VWS V14.01,2013-05-01 12:31:00,
2013-05-01 08:36:00,54.5,38.2,30.40,NE,51,0.0,0.0,54,0.00,,CLR,0.00,VWS V14.01,2013-05-01 12:36:00,
2013-05-01 08:41:00,55.1,38.8,30.40,ESE,118,0.0,4.0,54,0.00,,CLR,0.00,VWS V14.01,2013-05-01 12:41:00,
2013-05-01 08:46:00,55.8,37.5,30.39,NE,45,2.0,5.0,50,0.00,,CLR,0.00,VWS V14.01,2013-05-01 12:46:00,
2013-05-01 08:51:00,55.9,37.0,30.39,NNE,31,3.0,5.0,49,0.00,,CLR,0.00,VWS V14.01,2013-05-01 12:51:00,
2013-05-01 08:56:00,56.0,37.1,30.40,NE,45,3.0,5.0,49,0.00,,CLR,0.00,VWS V14.01,2013-05-01 12:56:00,
2013-05-01 09:01:00,56.4,36.4,30.40,NE,48,1.0,5.0,47,0.00,,CLR,0.00,VWS V14.01,2013-05-01 13:01:00,
2013-05-01 09:06:00,56.8,37.3,30.40,NE,50,0.0,5.0,48,0.00,,CLR,0.00,VWS V14.01,2013-05-01 13:06:00,
2013-05-01 09:11:00,57.5,37.5,30.39,ENE,72,1.0,5.0,47,0.00,,CLR,0.00,VWS V14.01,2013-05-01 13:11:00,
2013-05-01 09:16:00,58.1,37.5,30.39,East,95,0.0,5.0,46,0.00,,CLR,0.00,VWS V14.01,2013-05-01 13:16:00,
2013-05-01 09:21:00,58.7,37.4,30.39,SE,133,0.0,5.0,45,0.00,,CLR,0.00,VWS V14.01,2013-05-01 13:21:00,
2013-05-01 09:26:00,59.5,38.7,30.39,SE,126,0.0,5.0,46,0.00,,CLR,0.00,VWS V14.01,2013-05-01 13:26:00,
2013-05-01 09:31:00,60.2,37.0,30.39,ESE,120,1.0,1.0,42,0.00,,CLR,0.00,VWS V14.01,2013-05-01 13:31:00,
2013-05-01 09:36:00,60.8,37.6,30.39,NE,42,1.0,3.0,42,0.00,,CLR,0.00,VWS V14.01,2013-05-01 13:36:00,
2013-05-01 09:41:00,61.2,36.7,30.39,NE,45,4.0,4.0,40,0.00,,CLR,0.00,VWS V14.01,2013-05-01 13:41:00,
2013-05-01 09:46:00,61.1,36.6,30.39,NE,53,4.0,5.0,40,0.00,,CLR,0.00,VWS V14.01,2013-05-01 13:46:00,
2013-05-01 09:51:00,61.4,36.9,30.39,NE,42,2.0,5.0,40,0.00,,CLR,0.00,VWS V14.01,2013-05-01 13:51:00,
2013-05-01 09:56:00,61.6,37.7,30.39,NE,52,3.0,5.0,41,0.00,,CLR,0.00,VWS V14.01,2013-05-01 13:56:00,
2013-05-01 10:01:00,61.8,37.2,30.39,NE,53,2.0,3.0,40,0.00,,CLR,0.00,VWS V14.01,2013-05-01 14:01:00,
2013-05-01 10:06:00,62.3,37.0,30.39,East,79,0.0,5.0,39,0.00,,CLR,0.00,VWS V14.01,2013-05-01 14:06:00,
2013-05-01 10:11:00,62.5,37.2,30.39,NE,45,0.0,6.0,39,0.00,,CLR,0.00,VWS V14.01,2013-05-01 14:11:00,
2013-05-01 10:16:00,63.0,37.7,30.39,East,92,1.0,6.0,39,0.00,,CLR,0.00,VWS V14.01,2013-05-01 14:16:00,
2013-05-01 10:21:00,63.4,37.4,30.38,NE,49,4.0,6.0,38,0.00,,CLR,0.00,VWS V14.01,2013-05-01 14:21:00,
2013-05-01 10:26:00,63.8,38.4,30.38,SE,125,1.0,6.0,39,0.00,,CLR,0.00,VWS V14.01,2013-05-01 14:26:00,
2013-05-01 10:31:00,64.1,38.0,30.38,NE,35,4.0,6.0,38,0.00,,CLR,0.00,VWS V14.01,2013-05-01 14:31:00,
2013-05-01 10:36:00,64.4,37.6,30.38,East,93,3.0,6.0,37,0.00,,CLR,0.00,VWS V14.01,2013-05-01 14:36:00,
2013-05-01 10:41:00,65.1,38.9,30.38,NE,46,3.0,6.0,38,0.00,,CLR,0.00,VWS V14.01,2013-05-01 14:41:00,
2013-05-01 10:46:00,65.7,39.4,30.38,ESE,118,2.0,6.0,38,0.00,,CLR,0.00,VWS V14.01,2013-05-01 14:46:00,
2013-05-01 10:51:00,66.1,38.4,30.38,North,8,0.0,6.0,36,0.00,,CLR,0.00,VWS V14.01,2013-05-01 14:51:00,
2013-05-01 10:56:00,66.5,40.1,30.38,ESE,106,5.0,6.0,38,0.00,,CLR,0.00,VWS V14.01,2013-05-01 14:56:00,
2013-05-01 11:01:00,66.9,36.9,30.38,ENE,62,1.0,4.0,33,0.00,,CLR,0.00,VWS V14.01,2013-05-01 15:01:00,
2013-05-01 11:06:00,67.3,38.0,30.38,NE,39,2.0,4.0,34,0.00,,CLR,0.00,VWS V14.01,2013-05-01 15:06:00,
2013-05-01 11:11:00,67.5,38.9,30.38,ESE,102,1.0,8.0,35,0.00,,CLR,0.00,VWS V14.01,2013-05-01 15:11:00,
2013-05-01 11:16:00,68.4,39.7,30.37,SE,138,0.0,8.0,35,0.00,,CLR,0.00,VWS V14.01,2013-05-01 15:16:00,
2013-05-01 11:21:00,69.3,39.8,30.37,SE,131,0.0,8.0,34,0.00,,CLR,0.00,VWS V14.01,2013-05-01 15:21:00,
2013-05-01 11:26:00,69.8,40.9,30.37,NNE,30,2.0,8.0,35,0.00,,CLR,0.00,VWS V14.01,2013-05-01 15:26:00,
2013-05-01 11:31:00,70.0,39.6,30.37,SE,135,2.0,5.0,33,0.00,,CLR,0.00,VWS V14.01,2013-05-01 15:31:00,
2013-05-01 11:36:00,70.6,40.9,30.37,SE,138,0.0,5.0,34,0.00,,CLR,0.00,VWS V14.01,2013-05-01 15:36:00,
2013-05-01 11:41:00,71.3,39.1,30.37,NE,46,2.0,5.0,31,0.00,,CLR,0.00,VWS V14.01,2013-05-01 15:41:00,
2013-05-01 11:46:00,71.0,38.9,30.37,NE,45,3.0,6.0,31,0.00,,CLR,0.00,VWS V14.01,2013-05-01 15:46:00,
2013-05-01 11:51:00,70.7,37.8,30.37,NE,38,5.0,8.0,30,0.00,,CLR,0.00,VWS V14.01,2013-05-01 15:51:00,
2013-05-01 11:56:00,70.2,39.8,30.37,East,99,1.0,8.0,33,0.00,,CLR,0.00,VWS V14.01,2013-05-01 15:56:00,
2013-05-01 12:01:00,70.3,38.3,30.37,NE,45,3.0,5.0,31,0.00,,CLR,0.00,VWS V14.01,2013-05-01 16:01:00,
2013-05-01 12:06:00,70.8,38.7,30.37,NE,45,2.0,5.0,31,0.00,,CLR,0.00,VWS V14.01,2013-05-01 16:06:00,
2013-05-01 12:11:00,71.2,38.2,30.36,NE,38,2.0,5.0,30,0.00,,CLR,0.00,VWS V14.01,2013-05-01 16:11:00,
2013-05-01 12:16:00,71.7,41.1,30.36,NNW,344,3.0,5.0,33,0.00,,CLR,0.00,VWS V14.01,2013-05-01 16:16:00,
2013-05-01 12:21:00,71.7,37.8,30.36,NE,45,1.0,8.0,29,0.00,,CLR,0.00,VWS V14.01,2013-05-01 16:21:00,
2013-05-01 12:26:00,71.5,37.6,30.36,NNE,22,4.0,8.0,29,0.00,,CLR,0.00,VWS V14.01,2013-05-01 16:26:00,
2013-05-01 12:31:00,71.1,39.0,30.36,NNW,337,1.0,3.0,31,0.00,,CLR,0.00,VWS V14.01,2013-05-01 16:31:00,
2013-05-01 12:36:00,71.7,39.5,30.36,NNE,31,0.0,3.0,31,0.00,,CLR,0.00,VWS V14.01,2013-05-01 16:36:00,
2013-05-01 12:41:00,72.8,39.6,30.36,SE,128,0.0,6.0,30,0.00,,CLR,0.00,VWS V14.01,2013-05-01 16:41:00,
2013-05-01 12:46:00,73.9,37.8,30.36,East,100,2.0,6.0,27,0.00,,CLR,0.00,VWS V14.01,2013-05-01 16:46:00,
2013-05-01 12:51:00,74.6,40.3,30.35,ESE,118,0.0,6.0,29,0.00,,CLR,0.00,VWS V14.01,2013-05-01 16:51:00,
2013-05-01 12:56:00,75.0,38.8,30.35,NNW,342,1.0,6.0,27,0.00,,CLR,0.00,VWS V14.01,2013-05-01 16:56:00,
2013-05-01 13:01:00,75.1,41.6,30.35,NE,41,5.0,5.0,30,0.00,,CLR,0.00,VWS V14.01,2013-05-01 17:01:00,
2013-05-01 13:06:00,75.7,43.8,30.35,SE,140,0.0,5.0,32,0.00,,CLR,0.00,VWS V14.01,2013-05-01 17:06:00,
2013-05-01 13:11:00,76.4,40.0,30.35,SSW,210,1.0,7.0,27,0.00,,CLR,0.00,VWS V14.01,2013-05-01 17:11:00,
2013-05-01 13:16:00,77.1,40.6,30.34,NE,46,4.0,7.0,27,0.00,,CLR,0.00,VWS V14.01,2013-05-01 17:16:00,
2013-05-01 13:21:00,77.2,40.7,30.34,NE,45,0.0,7.0,27,0.00,,CLR,0.00,VWS V14.01,2013-05-01 17:21:00,
2013-05-01 13:26:00,76.8,42.2,30.34,NNE,19,3.0,7.0,29,0.00,,CLR,0.00,VWS V14.01,2013-05-01 17:26:00,
2013-05-01 13:31:00,76.7,40.2,30.34,NE,56,5.0,5.0,27,0.00,,CLR,0.00,VWS V14.01,2013-05-01 17:31:00,
2013-05-01 13:36:00,76.5,38.1,30.34,ENE,65,4.0,6.0,25,0.00,,CLR,0.00,VWS V14.01,2013-05-01 17:36:00,
2013-05-01 13:41:00,76.2,39.8,30.34,North,359,4.0,6.0,27,0.00,,CLR,0.00,VWS V14.01,2013-05-01 17:41:00,
2013-05-01 13:46:00,75.7,39.4,30.34,NNE,29,3.0,6.0,27,0.00,,CLR,0.00,VWS V14.01,2013-05-01 17:46:00,
2013-05-01 13:51:00,75.4,39.1,30.33,NNE,22,5.0,6.0,27,0.00,,CLR,0.00,VWS V14.01,2013-05-01 17:51:00,
2013-05-01 13:56:00,75.7,41.2,30.33,NE,50,6.0,7.0,29,0.00,,CLR,0.00,VWS V14.01,2013-05-01 17:56:00,
2013-05-01 14:01:00,76.4,40.0,30.33,SE,139,0.0,5.0,27,0.00,,CLR,0.00,VWS V14.01,2013-05-01 18:01:00,
2013-05-01 14:06:00,77.3,40.8,30.33,South,188,6.0,9.0,27,0.00,,CLR,0.00,VWS V14.01,2013-05-01 18:06:00,
2013-05-01 14:11:00,77.6,41.0,30.33,SSW,192,0.0,9.0,27,0.00,,CLR,0.00,VWS V14.01,2013-05-01 18:11:00,
2013-05-01 14:16:00,78.0,41.3,30.33,SSW,192,0.0,9.0,27,0.00,,CLR,0.00,VWS V14.01,2013-05-01 18:16:00,
2013-05-01 14:21:00,78.8,42.0,30.33,SSW,195,6.0,9.0,27,0.00,,CLR,0.06,VWS V14.01,2013-05-01 18:21:00,
2013-05-01 14:26:00,78.7,38.9,30.33,WSW,257,3.0,9.0,24,0.00,,CLR,0.00,VWS V14.01,2013-05-01 18:26:00,
2013-05-01 14:31:00,78.4,41.7,30.32,SSW,201,3.0,9.0,27,0.00,,CLR,0.00,VWS V14.01,2013-05-01 18:31:00,
2013-05-01 14:36:00,78.8,43.0,30.33,SSE,163,5.0,9.0,28,0.00,,CLR,0.00,VWS V14.01,2013-05-01 18:36:00,
2013-05-01 14:41:00,79.2,41.4,30.32,South,171,3.0,9.0,26,0.00,,CLR,0.00,VWS V14.01,2013-05-01 18:41:00,
2013-05-01 14:46:00,79.5,43.6,30.33,SE,143,3.0,9.0,28,0.00,,CLR,0.00,VWS V14.01,2013-05-01 18:46:00,
2013-05-01 14:51:00,79.9,43.0,30.32,SSE,163,0.0,9.0,27,0.00,,CLR,0.00,VWS V14.01,2013-05-01 18:51:00,
2013-05-01 14:56:00,80.1,41.1,30.32,SW,229,3.0,9.0,25,0.00,,CLR,0.00,VWS V14.01,2013-05-01 18:56:00,
2013-05-01 15:01:00,79.9,43.0,30.32,SSW,208,8.0,8.0,27,0.00,,CLR,0.00,VWS V14.01,2013-05-01 19:01:00,
2013-05-01 15:06:00,79.8,39.8,30.32,SW,223,6.0,10.0,24,0.00,,CLR,0.00,VWS V14.01,2013-05-01 19:06:00,
2013-05-01 15:11:00,79.5,42.6,30.32,SW,224,0.0,10.0,27,0.00,,CLR,0.00,VWS V14.01,2013-05-01 19:11:00,
2013-05-01 15:16:00,79.9,43.0,30.32,SSW,203,9.0,10.0,27,0.00,,CLR,0.00,VWS V14.01,2013-05-01 19:16:00,
2013-05-01 15:21:00,79.8,43.8,30.32,SSE,151,1.0,10.0,28,0.00,,CLR,0.00,VWS V14.01,2013-05-01 19:21:00,
2013-05-01 15:26:00,80.0,40.0,30.32,SSW,213,5.0,10.0,24,0.00,,CLR,0.00,VWS V14.01,2013-05-01 19:26:00,
2013-05-01 15:31:00,79.6,41.7,30.32,SSW,213,5.0,12.0,26,0.00,,CLR,0.00,VWS V14.01,2013-05-01 19:31:00,
2013-05-01 15:36:00,79.4,42.5,30.32,SE,129,6.0,12.0,27,0.00,,CLR,0.00,VWS V14.01,2013-05-01 19:36:00,
2013-05-01 15:41:00,79.6,42.7,30.32,SSE,152,2.0,12.0,27,0.00,,CLR,0.00,VWS V14.01,2013-05-01 19:41:00,
2013-05-01 15:46:00,79.9,43.0,30.32,South,178,4.0,12.0,27,0.00,,CLR,0.00,VWS V14.01,2013-05-01 19:46:00,
2013-05-01 15:51:00,80.2,41.2,30.32,SSW,199,5.0,12.0,25,0.00,,CLR,0.00,VWS V14.01,2013-05-01 19:51:00,
2013-05-01 15:56:00,79.9,39.9,30.32,South,189,2.0,12.0,24,0.00,,CLR,0.00,VWS V14.01,2013-05-01 19:56:00,
2013-05-01 16:01:00,79.7,40.8,30.32,South,189,1.0,6.0,25,0.00,,CLR,0.00,VWS V14.01,2013-05-01 20:01:00,
2013-05-01 16:06:00,79.7,42.8,30.32,South,189,3.0,6.0,27,0.00,,CLR,0.00,VWS V14.01,2013-05-01 20:06:00,
2013-05-01 16:11:00,79.9,42.0,30.32,SSW,197,9.0,9.0,26,0.00,,CLR,0.00,VWS V14.01,2013-05-01 20:11:00,
2013-05-01 16:16:00,79.8,41.9,30.32,South,179,5.0,11.0,26,0.00,,CLR,0.00,VWS V14.01,2013-05-01 20:16:00,
2013-05-01 16:21:00,80.0,43.0,30.32,ESE,115,3.0,11.0,27,0.00,,CLR,0.00,VWS V14.01,2013-05-01 20:21:00,
2013-05-01 16:26:00,80.5,43.5,30.32,SSW,193,1.0,11.0,27,0.00,,CLR,0.00,VWS V14.01,2013-05-01 20:26:00,
2013-05-01 16:31:00,81.1,42.0,30.32,South,178,2.0,4.0,25,0.00,,CLR,0.00,VWS V14.01,2013-05-01 20:31:00,
2013-05-01 16:36:00,81.2,42.1,30.32,SSE,168,5.0,9.0,25,0.00,,CLR,0.00,VWS V14.01,2013-05-01 20:36:00,
2013-05-01 16:41:00,81.2,44.1,30.32,SW,226,0.0,9.0,27,0.00,,CLR,0.00,VWS V14.01,2013-05-01 20:41:00,
2013-05-01 16:46:00,81.4,41.2,30.33,SSW,201,5.0,9.0,24,0.00,,CLR,0.00,VWS V14.01,2013-05-01 20:46:00,
2013-05-01 16:51:00,81.5,41.3,30.33,SSE,168,4.0,9.0,24,0.00,,CLR,0.00,VWS V14.01,2013-05-01 20:51:00,
2013-05-01 16:56:00,81.2,41.0,30.33,SSW,204,7.0,9.0,24,0.00,,CLR,0.00,VWS V14.01,2013-05-01 20:56:00,
2013-05-01 17:01:00,80.6,40.5,30.33,South,187,1.0,8.0,24,0.00,,CLR,0.00,VWS V14.01,2013-05-01 21:01:00,
2013-05-01 17:06:00,80.7,40.6,30.33,SE,124,5.0,8.0,24,0.00,,CLR,0.00,VWS V14.01,2013-05-01 21:06:00,
2013-05-01 17:11:00,80.8,40.7,30.34,South,180,1.0,9.0,24,0.00,,CLR,0.00,VWS V14.01,2013-05-01 21:11:00,
2013-05-01 17:16:00,81.0,42.9,30.34,SSE,157,0.0,9.0,26,0.00,,CLR,0.00,VWS V14.01,2013-05-01 21:16:00,
2013-05-01 17:21:00,81.5,41.3,30.34,SSE,160,6.0,9.0,24,0.00,,CLR,0.00,VWS V14.01,2013-05-01 21:21:00,
2013-05-01 17:26:00,81.5,41.3,30.34,South,177,5.0,9.0,24,0.00,,CLR,0.00,VWS V14.01,2013-05-01 21:26:00,
2013-05-01 17:31:00,81.3,41.1,30.34,South,191,3.0,5.0,24,0.00,,CLR,0.00,VWS V14.01,2013-05-01 21:31:00,
2013-05-01 17:36:00,81.2,41.0,30.34,SE,130,7.0,9.0,24,0.00,,CLR,0.00,VWS V14.01,2013-05-01 21:36:00,
2013-05-01 17:41:00,81.2,41.0,30.34,SSE,156,4.0,9.0,24,0.00,,CLR,0.00,VWS V14.01,2013-05-01 21:41:00,
2013-05-01 17:46:00,81.2,41.0,30.34,SSE,154,2.0,9.0,24,0.00,,CLR,0.00,VWS V14.01,2013-05-01 21:46:00,
2013-05-01 17:51:00,81.3,41.1,30.34,SE,143,3.0,9.0,24,0.00,,CLR,0.00,VWS V14.01,2013-05-01 21:51:00,
2013-05-01 17:56:00,81.1,40.9,30.34,SE,125,2.0,9.0,24,0.00,,CLR,0.00,VWS V14.01,2013-05-01 21:56:00,
2013-05-01 18:01:00,81.0,40.8,30.34,SSE,161,1.0,4.0,24,0.00,,CLR,0.00,VWS V14.01,2013-05-01 22:01:00,
2013-05-01 18:06:00,80.8,40.7,30.34,SSE,147,2.0,7.0,24,0.00,,CLR,0.00,VWS V14.01,2013-05-01 22:06:00,
2013-05-01 18:11:00,80.5,40.4,30.34,SE,137,0.0,8.0,24,0.00,,CLR,0.00,VWS V14.01,2013-05-01 22:11:00,
2013-05-01 18:16:00,80.5,40.4,30.34,SSE,151,2.0,8.0,24,0.00,,CLR,0.00,VWS V14.01,2013-05-01 22:16:00,
2013-05-01 18:21:00,80.5,40.4,30.34,SE,126,2.0,8.0,24,0.00,,CLR,0.00,VWS V14.01,2013-05-01 22:21:00,
2013-05-01 18:26:00,80.2,41.2,30.34,SE,124,4.0,8.0,25,0.00,,CLR,0.00,VWS V14.01,2013-05-01 22:26:00,
2013-05-01 18:31:00,79.9,42.0,30.34,SSE,168,4.0,4.0,26,0.00,,CLR,0.00,VWS V14.01,2013-05-01 22:31:00,
2013-05-01 18:36:00,79.8,41.9,30.35,SE,140,3.0,5.0,26,0.00,,CLR,0.00,VWS V14.01,2013-05-01 22:36:00,
2013-05-01 18:41:00,79.7,40.8,30.34,SSE,148,2.0,7.0,25,0.00,,CLR,0.00,VWS V14.01,2013-05-01 22:41:00,
2013-05-01 18:46:00,79.2,40.4,30.35,SSE,149,4.0,7.0,25,0.00,,CLR,0.00,VWS V14.01,2013-05-01 22:46:00,
2013-05-01 18:51:00,78.7,40.0,30.35,SSE,155,3.0,7.0,25,0.00,,CLR,0.00,VWS V14.01,2013-05-01 22:51:00,
2013-05-01 18:56:00,78.1,39.5,30.34,SE,143,2.0,9.0,25,0.00,,CLR,0.00,VWS V14.01,2013-05-01 22:56:00,
2013-05-01 19:01:00,77.5,40.0,30.35,SE,142,4.0,6.0,26,0.00,,CLR,0.00,VWS V14.01,2013-05-01 23:01:00,
2013-05-01 19:06:00,77.2,39.7,30.35,SE,127,1.0,6.0,26,0.00,,CLR,0.00,VWS V14.01,2013-05-01 23:06:00,
2013-05-01 19:11:00,76.8,39.3,30.35,SE,124,6.0,7.0,26,0.00,,CLR,0.00,VWS V14.01,2013-05-01 23:11:00,
2013-05-01 19:16:00,76.0,38.7,30.35,SE,134,0.0,7.0,26,0.00,,CLR,0.00,VWS V14.01,2013-05-01 23:16:00,
2013-05-01 19:21:00,75.1,38.9,30.35,SE,131,1.0,7.0,27,0.00,,CLR,0.00,VWS V14.01,2013-05-01 23:21:00,
2013-05-01 19:26:00,74.3,38.2,30.35,SSE,163,2.0,7.0,27,0.00,,CLR,0.06,VWS V14.01,2013-05-01 23:26:00,
2013-05-01 19:31:00,73.2,37.2,30.35,ESE,108,0.0,9.0,27,0.00,,CLR,0.00,VWS V14.01,2013-05-01 23:31:00,
2013-05-01 19:36:00,72.1,36.3,30.35,SE,131,4.0,9.0,27,0.00,,CLR,0.00,VWS V14.01,2013-05-01 23:36:00,
2013-05-01 19:41:00,71.0,36.3,30.35,SE,144,1.0,9.0,28,0.00,,CLR,0.00,VWS V14.01,2013-05-01 23:41:00,
2013-05-01 19:46:00,70.2,36.5,30.35,SE,131,3.0,9.0,29,0.00,,CLR,0.00,VWS V14.01,2013-05-01 23:46:00,
2013-05-01 19:51:00,69.3,36.6,30.35,SE,131,0.0,9.0,30,0.00,,CLR,0.00,VWS V14.01,2013-05-01 23:51:00,
2013-05-01 19:56:00,68.5,36.7,30.35,South,186,0.0,9.0,31,0.00,,CLR,0.00,VWS V14.01,2013-05-01 23:56:00,
2013-05-01 20:01:00,67.8,36.1,30.35,East,99,6.0,6.0,31,0.00,,CLR,0.00,VWS V14.01,2013-05-02 00:01:00,
2013-05-01 20:06:00,67.3,36.5,30.36,South,183,5.0,8.0,32,0.00,,CLR,0.00,VWS V14.01,2013-05-02 00:06:00,
2013-05-01 20:11:00,66.7,35.9,30.36,SSE,167,0.0,8.0,32,0.00,,CLR,0.00,VWS V14.01,2013-05-02 00:11:00,
2013-05-01 20:16:00,66.2,36.3,30.36,ENE,74,1.0,8.0,33,0.00,,CLR,0.00,VWS V14.01,2013-05-02 00:16:00,
2013-05-01 20:21:00,65.7,35.8,30.36,SE,137,0.0,8.0,33,0.00,,CLR,0.00,VWS V14.01,2013-05-02 00:21:00,
2013-05-01 20:26:00,65.3,35.5,30.36,SSW,198,1.0,8.0,33,0.00,,CLR,0.00,VWS V14.01,2013-05-02 00:26:00,
2013-05-01 20:31:00,64.9,35.1,30.37,ESE,111,1.0,6.0,33,0.00,,CLR,0.00,VWS V14.01,2013-05-02 00:31:00,
2013-05-01 20:36:00,64.5,35.5,30.37,ESE,110,0.0,6.0,34,0.00,,CLR,0.00,VWS V14.01,2013-05-02 00:36:00,
2013-05-01 20:41:00,64.0,35.8,30.37,SE,133,0.0,6.0,35,0.00,,CLR,0.00,VWS V14.01,2013-05-02 00:41:00,
2013-05-01 20:46:00,63.6,36.2,30.37,SE,137,0.0,6.0,36,0.00,,CLR,0.00,VWS V14.01,2013-05-02 00:46:00,
2013-05-01 20:51:00,63.2,35.8,30.37,North,3,0.0,6.0,36,0.00,,CLR,0.00,VWS V14.01,2013-05-02 00:51:00,
2013-05-01 20:56:00,62.9,36.2,30.38,East,92,6.0,9.0,37,0.00,,CLR,0.00,VWS V14.01,2013-05-02 00:56:00,
2013-05-01 21:01:00,62.8,36.8,30.38,ENE,61,1.0,4.0,38,0.00,,CLR,0.00,VWS V14.01,2013-05-02 01:01:00,
2013-05-01 21:06:00,62.6,36.7,30.38,SE,138,0.0,7.0,38,0.00,,CLR,0.00,VWS V14.01,2013-05-02 01:06:00,
2013-05-01 21:11:00,62.3,37.0,30.39,East,86,1.0,9.0,39,0.00,,CLR,0.00,VWS V14.01,2013-05-02 01:11:00,
2013-05-01 21:16:00,62.1,37.5,30.39,NE,46,0.0,9.0,40,0.00,,CLR,0.00,VWS V14.01,2013-05-02 01:16:00,
2013-05-01 21:21:00,61.9,37.3,30.39,ESE,121,0.0,9.0,40,0.00,,CLR,0.00,VWS V14.01,2013-05-02 01:21:00,
2013-05-01 21:26:00,61.7,37.8,30.39,SE,131,2.0,9.0,41,0.00,,CLR,0.00,VWS V14.01,2013-05-02 01:26:00,
2013-05-01 21:31:00,61.6,38.3,30.40,SE,139,5.0,13.0,42,0.00,,CLR,0.00,VWS V14.01,2013-05-02 01:31:00,
2013-05-01 21:36:00,61.5,39.4,30.40,East,88,3.0,13.0,44,0.00,,CLR,0.00,VWS V14.01,2013-05-02 01:36:00,
2013-05-01 21:41:00,61.5,40.0,30.40,ESE,108,9.0,13.0,45,0.00,,CLR,0.00,VWS V14.01,2013-05-02 01:41:00,
2013-05-01 21:46:00,61.4,39.9,30.41,ESE,109,3.0,13.0,45,0.00,,CLR,0.00,VWS V14.01,2013-05-02 01:46:00,
2013-05-01 21:51:00,61.3,40.4,30.41,SSE,160,1.0,13.0,46,0.00,,CLR,0.00,VWS V14.01,2013-05-02 01:51:00,
2013-05-01 21:56:00,61.1,40.7,30.41,SE,140,4.0,13.0,47,0.00,,CLR,0.00,VWS V14.01,2013-05-02 01:56:00,
2013-05-01 22:01:00,60.8,41.0,30.41,East,88,3.0,3.0,48,0.00,,CLR,0.00,VWS V14.01,2013-05-02 02:01:00,
2013-05-01 22:06:00,60.5,41.3,30.41,East,92,3.0,8.0,49,0.00,,CLR,0.00,VWS V14.01,2013-05-02 02:06:00,
2013-05-01 22:11:00,60.2,41.0,30.41,SSE,154,1.0,8.0,49,0.00,,CLR,0.00,VWS V14.01,2013-05-02 02:11:00,
2013-05-01 22:16:00,59.9,41.2,30.41,ENE,77,1.0,8.0,50,0.00,,CLR,0.00,VWS V14.01,2013-05-02 02:16:00,
2013-05-01 22:21:00,59.7,41.6,30.41,East,101,4.0,8.0,51,0.00,,CLR,0.00,VWS V14.01,2013-05-02 02:21:00,
2013-05-01 22:26:00,59.6,41.5,30.42,East,99,2.0,8.0,51,0.00,,CLR,0.00,VWS V14.01,2013-05-02 02:26:00,
2013-05-01 22:31:00,59.3,41.7,30.41,NE,49,2.0,4.0,52,0.00,,CLR,0.00,VWS V14.01,2013-05-02 02:31:00,
2013-05-01 22:36:00,59.0,41.4,30.41,ESE,121,0.0,7.0,52,0.00,,CLR,0.00,VWS V14.01,2013-05-02 02:36:00,
2013-05-01 22:41:00,58.8,41.7,30.42,SE,137,0.0,7.0,53,0.00,,CLR,0.00,VWS V14.01,2013-05-02 02:41:00,
2013-05-01 22:46:00,58.4,41.8,30.42,ESE,114,3.0,7.0,54,0.00,,CLR,0.00,VWS V14.01,2013-05-02 02:46:00,
2013-05-01 22:51:00,58.2,42.1,30.41,SE,135,2.0,10.0,55,0.00,,CLR,0.00,VWS V14.01,2013-05-02 02:51:00,
2013-05-01 22:56:00,58.1,42.0,30.41,ESE,116,3.0,10.0,55,0.00,,CLR,0.00,VWS V14.01,2013-05-02 02:56:00,
2013-05-01 23:01:00,57.9,42.8,30.41,ESE,112,4.0,9.0,57,0.00,,CLR,0.00,VWS V14.01,2013-05-02 03:01:00,
2013-05-01 23:06:00,57.7,42.6,30.41,ESE,122,5.0,9.0,57,0.00,,CLR,0.00,VWS V14.01,2013-05-02 03:06:00,
2013-05-01 23:11:00,57.6,42.5,30.41,SE,126,2.0,9.0,57,0.00,,CLR,0.00,VWS V14.01,2013-05-02 03:11:00,
2013-05-01 23:16:00,57.4,42.8,30.42,East,100,5.0,9.0,58,0.00,,CLR,0.00,VWS V14.01,2013-05-02 03:16:00,
2013-05-01 23:21:00,57.3,42.7,30.42,ESE,113,2.0,9.0,58,0.00,,CLR,0.00,VWS V14.01,2013-05-02 03:21:00,
2013-05-01 23:26:00,57.1,42.5,30.41,ESE,116,0.0,9.0,58,0.00,,CLR,0.00,VWS V14.01,2013-05-02 03:26:00,
2013-05-01 23:31:00,56.7,42.5,30.41,ESE,114,2.0,3.0,59,0.00,,CLR,0.00,VWS V14.01,2013-05-02 03:31:00,
2013-05-01 23:36:00,56.4,42.7,30.41,NE,45,0.0,3.0,60,0.00,,CLR,0.00,VWS V14.01,2013-05-02 03:36:00,
2013-05-01 23:41:00,56.0,42.8,30.41,NE,45,1.0,3.0,61,0.00,,CLR,0.00,VWS V14.01,2013-05-02 03:41:00,
2013-05-01 23:46:00,55.7,42.9,30.41,SE,131,0.0,4.0,62,0.00,,CLR,0.00,VWS V14.01,2013-05-02 03:46:00,
2013-05-01 23:51:00,55.2,42.0,30.41,SE,131,0.0,4.0,61,0.00,,CLR,0.00,VWS V14.01,2013-05-02 03:51:00,
2013-05-01 23:56:00,54.8,42.0,30.41,SE,131,0.0,4.0,62,0.00,,CLR,0.00,VWS V14.01,2013-05-02 03:56:00,